Regional Weather Roundup
Issued by NWS

Home | Current Version | Previous Version | Text Only | Print | Product List | Glossary Off
Versions: 1 2 3 4 5 6 7 8 9 10 11 12 13 14 15 16 17 18 19 20 21 22 23 24 25 26 27 28 29 30 31 32 33 34 35 36 37 38 39 40 41 42 43 44 45 46 47 48 49 50

000
ASUS43 KIND 280909
RWRIN

WEATHER ROUNDUP FOR INDIANA
NATIONAL WEATHER SERVICE INDIANAPOLIS IN
500 AM EDT SAT MAR 28 2015

NOTE: "FAIR" INDICATES FEW OR NO CLOUDS BELOW 12,000 FEET WITH NO
SIGNIFICANT WEATHER AND/OR OBSTRUCTIONS TO VISIBILITY.

* - STATION DOES NOT REPORT WEATHER SUCH AS PRECIPITATION OR FOG.

+ - STATION NOT QUALITY CONTROLLED BY THE NATIONAL WEATHER SERVICE.
    USE DATA WITH CAUTION...ESPECIALLY DEWPOINT AND RELATIVE
    HUMIDITY OBSERVATIONS.

INZ001>003-010>013-019-020-281000-
NORTHWEST INDIANA

CITY           SKY/WX    TMP DP  RH WIND       PRES   REMARKS
GARY /AIRPORT/ CLEAR     26   9  49 N7        30.23R WCI  18
KNOX *+          N/A     18   1  49 N3        30.20S
LA PORTE +     CLOUDY    17   8  66 N6        30.21S WCI   9
MICHIGAN CITY+ CLEAR     19   3  49 CALM      30.23R
MONTICELLO +   CLEAR     16  14  90 NW5       30.20S WCI   9
RENSSELAER +   CLEAR     21  19  93 NW3       30.21S
VALPARAISO     CLEAR     18  10  71 CALM      30.22R

$$

LMZ046-743>745-281000-
SOUTHERN LAKE MICHIGAN

STATION/POSITION TIME  TEMP WIND        PRES
                       AIR  DIR/SP/G
                 (UTC) (F)  (DEG/KT/KT) (MB)
BURNS HARBOR     0900   25   50/ 11/ 15 1023.7R
MICHIGAN CITY    0900   20   60/  5/  6   N/A

$$

INZ004-005-014>016-021>024-281000-
NORTH CENTRAL INDIANA

CITY           SKY/WX    TMP DP  RH WIND       PRES   REMARKS
GOSHEN         CLEAR     15   8  73 N5        30.18R WCI   8
LOGANSPORT +   CLEAR     19  14  79 N6        30.20S WCI  11
PERU/GRISSOM   CLEAR     18  12  78 N6        30.17R WCI  10
ROCHESTER +    CLEAR     19  14  79 N3        30.20R
SOUTH BEND     CLEAR     13   6  74 N6        30.21R WCI   4
WARSAW +       CLEAR     18  10  73 N3        30.19R

$$

INZ006>009-017-018-025>027-281000-
NORTHEAST INDIANA

CITY           SKY/WX    TMP DP  RH WIND       PRES   REMARKS
ANGOLA *+      CLEAR     16   7  67 E5        30.17R WCI   9
AUBURN +       CLEAR     19   9  63 NE8       30.18R WCI   9
FORT WAYNE     CLEAR     19  11  70 NE7       30.18R WCI  10
HUNTINGTON +   CLEAR     18   9  68 N5        30.17S WCI  11

$$

INZ028-029-035-036-043>045-051>053-281000-
WEST CENTRAL INDIANA

CITY           SKY/WX    TMP DP  RH WIND       PRES   REMARKS
CRAWFORDSVL +  CLEAR     17  10  74 MISG      30.20S
GREENCASTLE +  CLEAR     19  12  73 N5        30.19S WCI  13
LAFAYETTE      CLEAR     16  13  88 CALM      30.21S
TERRE HAUTE    CLEAR     22  14  71 N7        30.21S WCI  13

$$

INZ030>032-037>040-046>048-054>057-064-065-281000-
CENTRAL INDIANA

CITY           SKY/WX    TMP DP  RH WIND       PRES   REMARKS
CP ATTERBURY + CLEAR     19  14  79 N6        30.18S WCI  11
FISHERS *+     CLEAR     18  16  93 CALM      30.18
FRANKFORT +    CLEAR     17  15  90 W5        30.20R WCI  10
GREENWOOD *+   CLEAR     19  10  68 NW5       30.17S WCI  13
INDIANAPOLIS   PTCLDY    19  11  70 NW6       30.16S WCI  11
-EAGLE CREEK   CLEAR     20  13  74 N6        30.17S WCI  12
KOKOMO *+        N/A     19  12  73 N7        30.18R WCI  10
MARION +       CLEAR     19  13  79 N5        30.17S WCI  12
MT COMFORT *+  CLEAR     18   9  68 NW6       30.17S WCI   9
SHELBYVILLE    CLEAR     21  14  74 N7        30.16S WCI  12
ZIONSVILLE +   CLEAR     19  13  79 NW5       30.18R WCI  12

$$

INZ033-034-041-042-049-050-058-059-281000-
EAST CENTRAL INDIANA

CITY           SKY/WX    TMP DP  RH WIND       PRES   REMARKS
MUNCIE         CLEAR     19  14  81 NW5       30.15S WCI  12

$$

INZ060-061-067>069-081>083-085>088-281000-
SOUTHWEST INDIANA

CITY           SKY/WX    TMP DP  RH WIND       PRES   REMARKS
EVANSVILLE     CLEAR     26  18  71 NE6       30.21S WCI  19
HUNTINGBURG *+ CLEAR     25  12  58 N6        30.20R WCI  18
WASHINGTON +   CLEAR     23  16  73 N5        30.20S WCI  17

$$

INZ062-063-066-070>080-084-089>092-281000-
SOUTH CENTRAL AND SOUTHEAST INDIANA

CITY           SKY/WX    TMP DP  RH WIND       PRES   REMARKS
BEDFORD +      CLEAR     21  10  63 N5        30.18R WCI  15
BLOOMINGTON    CLEAR     19  13  77 N5        30.17S WCI  12
NORTH VERNON + CLEAR     23  16  74 N6        30.16S WCI  16
SEYMOUR +      CLEAR     23  14  68 N9        30.18R WCI  13

$$




USA.gov is the U.S. government's official web portal to all federal, state and local government web resources and services.